period_start,C,m1,H,J0,J1,J2,J3,J4,J5,JA,JB,JC,JD,JJ,JK,JN,#
2017-01-03 00:03:23,0.47,11.87,0.00,18.53,22.43,26.26,14.84,51.25,1012.71,2042.00,1141.53,1313.78,1494.65,600.19,602.95,24.00,0000 0000 0000 0000 000000
2017-01-03 00:08:25,0.44,11.90,0.00,18.53,22.45,26.26,14.72,51.24,1012.71,2042.00,1139.52,1312.14,1492.72,599.64,602.37,24.05,0000 0000 0000 0000 000000
2017-01-03 00:13:26,0.47,11.92,0.00,18.56,22.47,26.29,14.82,51.25,1012.72,2042.00,1137.55,1310.51,1490.86,599.94,602.69,24.10,0000 0000 0000 0000 000000
2017-01-03 00:18:27,0.40,11.94,0.00,18.57,22.48,26.30,14.82,51.25,1012.74,2042.00,1135.73,1308.96,1489.10,600.19,602.94,24.15,0000 0000 0000 0000 000000
2017-01-03 00:23:29,0.42,11.96,0.00,18.61,22.49,26.28,14.76,51.24,1012.72,2041.99,1133.87,1307.50,1487.40,599.96,602.72,24.20,0000 0000 0000 0000 000000
2017-01-03 00:28:30,0.39,11.98,0.00,18.61,22.51,26.34,14.78,51.29,1012.78,2041.99,1132.15,1305.96,1485.67,599.97,602.72,24.25,0000 0000 0000 0000 000000
2017-01-03 00:33:31,0.42,12.00,0.00,18.62,22.52,26.37,14.80,51.29,1012.74,2041.99,1130.35,1304.51,1483.91,600.22,602.96,24.30,0000 0000 0000 0000 000000
2017-01-03 00:38:32,0.41,12.03,0.00,18.65,22.54,26.36,14.80,51.26,1012.82,2041.96,1128.58,1302.97,1482.21,600.20,602.82,24.35,0000 0000 0000 0000 000000
2017-01-03 00:43:33,0.43,12.05,0.00,18.66,22.56,26.36,14.84,51.36,1012.81,2041.94,1126.74,1301.50,1480.51,599.95,602.66,24.40,0000 0000 0000 0000 000000
2017-01-03 00:48:35,0.42,12.07,0.00,18.67,22.58,26.40,14.85,51.33,1012.89,2041.88,1124.88,1299.96,1478.74,599.94,602.60,24.45,0000 0000 0000 0000 000000
2017-01-03 00:53:35,0.39,12.09,0.00,18.70,22.59,26.39,14.77,51.38,1012.87,2041.71,1123.03,1298.49,1476.97,600.16,602.68,24.50,0000 0000 0000 0000 000000
2017-01-03 00:58:37,0.40,12.11,0.00,18.73,22.62,26.44,14.73,51.27,1012.91,2041.60,1121.19,1296.89,1475.25,600.07,602.62,24.55,0000 0000 0000 0000 000000
2017-01-03 01:03:38,0.40,12.13,0.00,18.75,22.63,26.43,14.78,51.36,1013.12,2041.29,1119.35,1295.44,1473.51,600.01,602.63,24.60,0000 0000 0000 0000 000000
2017-01-03 01:08:39,0.42,12.15,0.00,18.77,22.64,26.45,14.81,51.28,1013.16,2041.14,1117.49,1293.87,1471.78,600.11,602.78,24.65,0000 0000 0000 0000 000000
2017-01-03 01:13:41,0.41,12.17,0.00,18.78,22.67,26.53,14.80,51.14,1013.20,2041.05,1115.64,1292.37,1470.12,600.03,602.60,24.70,0000 0000 0000 0000 000000
2017-01-03 01:18:42,0.43,12.19,0.00,18.79,22.69,26.49,14.81,51.16,1013.20,2041.04,1113.81,1290.83,1468.41,600.04,602.55,24.75,0000 0000 0000 0000 000000
2017-01-03 01:23:43,0.42,12.21,0.00,18.82,22.71,26.53,14.71,51.15,1013.20,2041.02,1111.97,1289.30,1466.68,599.68,602.40,24.80,0000 0000 0000 0000 000000
2017-01-03 01:28:44,0.43,12.23,0.00,18.82,22.72,26.55,14.75,51.28,1013.20,2041.00,1110.18,1287.75,1464.92,600.13,602.62,24.85,0000 0000 0000 0000 000000
2017-01-03 01:33:45,0.41,12.26,0.00,18.82,22.74,26.53,14.77,51.15,1013.20,2041.00,1108.40,1286.33,1463.22,600.15,602.65,24.90,0000 0000 0000 0000 000000
2017-01-03 01:38:47,0.44,12.28,0.00,18.85,22.76,26.54,14.77,51.17,1013.20,2041.00,1106.62,1284.80,1461.55,599.90,602.31,24.95,0000 0000 0000 0000 000000
2017-01-03 01:43:48,0.41,12.30,0.00,18.88,22.78,26.61,14.72,51.28,1013.20,2040.99,1104.81,1283.40,1459.82,600.07,602.55,25.00,0000 0000 0000 0000 000000
2017-01-03 01:48:50,0.42,12.32,0.00,18.88,22.80,26.62,14.77,51.20,1013.20,2040.98,1103.05,1281.87,1458.10,600.13,602.45,25.05,0000 0000 0000 0000 000000
2017-01-03 01:53:51,0.40,12.34,0.00,18.92,22.82,26.66,14.76,51.14,1013.21,2040.97,1101.33,1280.48,1456.49,599.96,602.34,25.10,0000 0000 0000 0000 000000
2017-01-03 01:58:52,0.40,12.36,0.00,18.93,22.84,26.66,14.76,51.28,1013.22,2040.95,1099.61,1279.07,1454.82,599.77,602.10,25.15,0000 0000 0000 0000 000000
2017-01-03 02:03:53,0.41,12.38,0.00,18.96,22.86,26.66,14.73,51.17,1013.22,2040.94,1097.87,1277.72,1453.22,600.16,602.47,25.20,0000 0000 0000 0000 000000
2017-01-03 02:08:54,0.37,12.40,0.00,18.98,22.88,26.71,14.82,51.44,1013.23,2040.81,1096.18,1276.35,1451.60,600.10,602.40,25.25,0000 0000 0000 0000 000000
2017-01-03 02:13:56,0.35,12.42,0.00,18.98,22.89,26.74,14.77,51.35,1013.46,2040.54,1094.50,1274.91,1449.93,600.10,602.43,25.30,0000 0000 0000 0000 000000
2017-01-03 02:18:57,0.38,12.44,0.00,19.00,22.92,26.74,14.77,51.41,1013.51,2040.31,1092.81,1273.57,1448.41,599.99,602.38,25.35,0000 0000 0000 0000 000000
2017-01-03 02:23:59,0.36,12.46,0.00,19.01,22.93,26.76,14.75,51.45,1013.59,2040.09,1091.15,1272.20,1446.80,600.10,602.48,25.40,0000 0000 0000 0000 000000
2017-01-03 02:29:00,0.41,12.48,0.00,19.03,22.95,26.76,14.82,51.45,1013.64,2040.06,1089.52,1270.77,1445.19,600.13,602.54,25.45,0000 0000 0000 0000 000000
2017-01-03 02:34:01,0.35,12.50,0.00,19.02,22.97,26.77,14.74,51.33,1013.69,2040.04,1088.05,1269.51,1443.64,599.78,602.10,25.50,0000 0000 0000 0000 000000
2017-01-03 02:39:03,0.34,12.51,0.00,19.04,22.99,26.79,14.73,51.12,1013.69,2040.00,1086.81,1268.24,1441.99,599.67,601.99,25.55,0000 0000 0000 0000 000000
2017-01-03 02:44:04,0.39,12.53,0.00,19.06,23.01,26.81,14.89,51.17,1013.69,2040.00,1085.40,1266.83,1440.44,600.27,602.63,25.60,0000 0000 0000 0000 000000
2017-01-03 02:49:05,0.41,12.55,0.00,19.09,23.03,26.82,14.77,51.08,1013.69,2039.99,1083.77,1265.52,1438.85,600.19,602.55,25.65,0000 0000 0000 0000 000000
2017-01-03 02:54:06,0.35,12.57,0.00,19.09,23.05,26.85,14.75,51.18,1013.69,2039.96,1082.21,1264.22,1437.35,599.93,602.24,25.70,0000 0000 0000 0000 000000
2017-01-03 02:59:07,0.40,12.59,0.00,19.10,23.07,26.85,14.72,51.01,1013.69,2039.88,1080.61,1262.83,1435.75,600.00,602.21,25.75,0000 0000 0000 0000 000000
2017-01-03 03:04:09,0.35,12.61,0.00,19.11,23.09,26.89,14.76,51.09,1013.69,2039.63,1078.94,1261.51,1434.25,600.10,602.23,25.80,0000 0000 0000 0000 000000
2017-01-03 03:09:10,0.32,12.63,0.00,19.14,23.12,26.90,14.82,51.04,1013.69,2039.21,1077.30,1260.08,1432.62,600.30,602.34,25.85,0000 0000 0000 0000 000000
2017-01-03 03:14:12,0.44,12.65,0.00,19.16,23.13,26.91,14.77,51.01,1013.69,2039.09,1075.60,1258.67,1431.08,600.45,602.65,25.90,0000 0000 0000 0000 000000
2017-01-03 03:19:13,0.38,12.67,0.00,19.19,23.15,26.93,14.78,51.06,1013.69,2039.05,1073.92,1257.39,1429.53,600.10,602.11,25.95,0000 0000 0000 0000 000000
2017-01-03 03:24:15,0.37,12.69,0.00,19.19,23.17,26.97,14.73,51.07,1013.69,2039.01,1072.38,1255.98,1427.87,599.84,601.87,26.00,0000 0000 0000 0000 000000
2017-01-03 03:29:16,0.44,12.71,0.00,19.19,23.19,26.99,14.82,51.11,1013.69,2039.00,1070.74,1254.60,1426.28,600.45,602.51,26.05,0000 0000 0000 0000 000000
2017-01-03 03:34:17,0.39,12.73,0.00,19.20,23.21,26.98,14.72,51.05,1013.69,2038.99,1069.02,1253.27,1424.72,600.05,602.02,26.10,0000 0000 0000 0000 000000
2017-01-03 03:39:19,0.39,12.75,0.00,19.22,23.22,26.98,14.77,50.93,1013.70,2038.99,1067.44,1251.90,1423.26,599.92,602.03,26.15,0000 0000 0000 0000 000000
2017-01-03 03:44:20,0.45,12.77,0.00,19.22,23.24,27.01,14.71,51.12,1013.70,2038.98,1065.73,1250.57,1421.65,599.70,601.76,26.20,0000 0000 0000 0000 000000
2017-01-03 03:49:22,0.37,12.79,0.00,19.25,23.25,27.03,14.75,51.16,1013.76,2038.95,1063.99,1249.16,1420.08,599.80,601.66,26.25,0000 0000 0000 0000 000000
2017-01-03 03:54:23,0.41,12.81,0.00,19.27,23.27,27.05,14.72,51.17,1013.87,2038.91,1062.41,1247.82,1418.56,599.76,601.69,26.30,0000 0000 0000 0000 000000
2017-01-03 03:59:25,0.40,12.83,0.00,19.30,23.29,27.06,14.71,51.08,1014.05,2038.77,1060.82,1246.45,1416.96,599.91,602.01,26.35,0000 0000 0000 0000 000000
2017-01-03 04:04:26,0.31,12.85,0.00,19.30,23.30,27.06,14.77,51.16,1014.07,2038.37,1059.08,1244.99,1415.37,600.47,602.53,26.40,0000 0000 0000 0000 000000
2017-01-03 04:09:27,0.43,12.87,0.00,19.30,23.32,27.07,14.73,51.20,1014.10,2038.12,1057.36,1243.59,1413.75,600.26,602.35,26.45,0000 0000 0000 0000 000000
2017-01-03 04:14:28,0.38,12.89,0.00,19.31,23.34,27.10,14.83,51.09,1014.17,2038.06,1055.66,1242.25,1412.22,600.06,602.15,26.50,0000 0000 0000 0000 000000
2017-01-03 04:19:29,0.42,12.91,0.00,19.32,23.35,27.13,14.75,51.16,1014.17,2038.04,1054.04,1240.83,1410.60,599.85,602.02,26.55,0000 0000 0000 0000 000000
2017-01-03 04:24:31,0.41,12.93,0.00,19.32,23.37,27.12,14.65,51.04,1014.17,2038.01,1052.39,1239.54,1409.01,599.82,601.92,26.60,0000 0000 0000 0000 000000
2017-01-03 04:29:32,0.42,12.95,0.00,19.33,23.38,27.11,14.82,51.08,1014.17,2038.00,1050.67,1238.15,1407.50,600.22,602.26,26.66,0000 0000 0000 0000 000000
2017-01-03 04:34:33,0.45,12.97,0.00,19.35,23.39,27.12,14.82,51.11,1014.17,2038.00,1048.92,1236.71,1405.90,600.30,602.36,26.71,0000 0000 0000 0000 000000
2017-01-03 04:39:34,0.40,12.99,0.00,19.37,23.41,27.17,14.79,51.14,1014.18,2038.00,1047.23,1235.40,1404.36,600.09,602.02,26.76,0000 0000 0000 0000 000000
2017-01-03 04:44:36,0.46,13.01,0.00,19.40,23.42,27.19,14.74,51.05,1014.18,2038.00,1045.45,1233.90,1402.68,599.87,601.83,26.81,0000 0000 0000 0000 000000
2017-01-03 04:49:37,0.45,13.04,0.00,19.41,23.44,27.20,14.77,51.13,1014.18,2038.00,1043.69,1232.52,1401.05,599.79,601.69,26.86,0000 0000 0000 0000 000000
2017-01-03 04:54:39,0.41,13.06,0.00,19.42,23.45,27.22,14.70,50.99,1014.18,2037.99,1041.98,1231.10,1399.49,599.66,601.57,26.91,0000 0000 0000 0000 000000
2017-01-03 04:59:40,0.44,13.08,0.00,19.44,23.47,27.23,14.79,50.89,1014.19,2037.98,1040.42,1229.68,1397.78,600.00,601.83,26.96,0000 0000 0000 0000 000000
2017-01-03 05:04:41,0.41,13.10,0.00,19.45,23.48,27.23,14.76,50.95,1014.20,2037.96,1038.76,1228.39,1396.25,600.13,601.90,27.01,0000 0000 0000 0000 000000
2017-01-03 05:09:43,0.37,13.12,0.00,19.48,23.50,27.25,14.64,50.92,1014.19,2037.77,1037.13,1226.97,1394.63,599.49,601.34,27.06,0000 0000 0000 0000 000000
2017-01-03 05:14:44,0.42,13.14,0.00,19.49,23.50,27.24,14.75,51.09,1014.19,2037.45,1035.32,1225.58,1393.06,599.79,601.45,27.11,0000 0000 0000 0000 000000
2017-01-03 05:19:45,0.41,13.16,0.00,19.51,23.52,27.28,14.76,51.07,1014.20,2037.26,1033.54,1224.20,1391.51,599.77,601.48,27.16,0000 0000 0000 0000 000000
2017-01-03 05:24:47,0.43,13.18,0.00,19.50,23.52,27.32,14.78,50.98,1014.20,2037.07,1031.90,1222.74,1389.80,600.20,601.93,27.21,0000 0000 0000 0000 000000
2017-01-03 05:29:48,0.42,13.21,0.00,19.52,23.54,27.31,14.84,50.92,1014.20,2037.04,1030.18,1221.40,1388.18,600.22,602.04,27.26,0000 0000 0000 0000 000000
2017-01-03 05:34:49,0.46,13.23,0.00,19.53,23.55,27.32,14.70,50.88,1014.19,2037.02,1028.42,1219.90,1386.62,600.06,601.76,27.31,0000 0000 0000 0000 000000
2017-01-03 05:39:50,0.45,13.25,0.00,19.54,23.56,27.32,14.79,50.97,1014.18,2037.01,1026.64,1218.56,1385.04,600.13,601.79,27.36,0000 0000 0000 0000 000000
2017-01-03 05:44:52,0.42,13.27,0.00,19.55,23.57,27.31,14.77,50.82,1014.21,2037.00,1024.94,1217.14,1383.47,599.91,601.51,27.41,0000 0000 0000 0000 000000
2017-01-03 05:49:53,0.43,13.30,0.00,19.55,23.58,27.34,14.73,50.81,1014.27,2037.00,1023.29,1215.81,1381.80,599.87,601.44,27.46,0000 0000 0000 0000 000000
2017-01-03 05:54:54,0.43,13.32,0.00,19.57,23.60,27.33,14.77,50.85,1014.28,2037.00,1021.72,1214.59,1380.22,600.13,601.84,27.51,0000 0000 0000 0000 000000
2017-01-03 05:59:56,0.42,13.34,0.00,19.57,23.60,27.37,14.77,50.88,1014.28,2037.00,1020.01,1213.26,1378.67,599.76,601.42,27.56,0000 0000 0000 0000 000000
2017-01-03 06:04:57,0.43,13.36,0.00,19.57,23.62,27.36,14.71,50.77,1014.25,2037.00,1018.35,1211.87,1377.10,599.96,601.51,27.61,0000 0000 0000 0000 000000
2017-01-03 06:09:58,0.47,13.38,0.00,19.58,23.62,27.41,14.80,50.80,1014.32,2036.99,1016.67,1210.53,1375.58,600.00,601.58,27.66,0000 0000 0000 0000 000000
2017-01-03 06:14:59,0.43,13.40,0.00,19.60,23.65,27.39,14.78,50.85,1014.29,2036.99,1014.96,1209.17,1373.90,599.90,601.40,27.71,0000 0000 0000 0000 000000
2017-01-03 06:20:01,0.44,13.43,0.00,19.60,23.65,27.42,14.74,50.75,1014.22,2036.98,1013.27,1207.75,1372.35,600.02,601.64,27.76,0000 0000 0000 0000 000000
2017-01-03 06:25:02,0.46,13.45,0.00,19.60,23.66,27.45,14.70,50.78,1014.24,2036.97,1011.50,1206.41,1370.75,599.89,601.44,27.81,0000 0000 0000 0000 000000
2017-01-03 06:30:03,0.40,13.47,0.00,19.61,23.67,27.43,14.73,50.85,1014.44,2036.97,1009.98,1205.01,1369.16,600.11,601.73,27.86,0000 0000 0000 0000 000000
2017-01-03 06:35:04,0.48,13.50,0.00,19.62,23.68,27.44,14.71,50.83,1014.52,2036.90,1008.22,1203.59,1367.49,599.90,601.55,27.91,0000 0000 0000 0000 000000
2017-01-03 06:40:06,0.43,13.52,0.00,19.63,23.69,27.45,14.68,50.83,1014.59,2036.79,1006.33,1202.16,1365.81,599.69,601.40,27.96,0000 0000 0000 0000 000000
2017-01-03 06:45:07,0.48,13.54,0.00,19.64,23.70,27.45,14.73,50.77,1014.49,2036.73,1004.62,1200.70,1364.20,600.16,601.79,28.01,0000 0000 0000 0000 000000
2017-01-03 06:50:08,0.36,13.56,0.00,19.64,23.71,27.46,14.74,50.80,1014.45,2036.38,1002.87,1199.39,1362.58,599.86,601.43,28.06,0000 0000 0000 0000 000000
2017-01-03 06:55:10,0.45,13.58,0.00,19.64,23.72,27.49,14.67,50.88,1014.36,2036.21,1001.07,1197.93,1361.00,599.72,601.14,28.11,0000 0000 0000 0000 000000
2017-01-03 07:00:12,0.47,13.61,0.00,19.65,23.72,27.50,14.74,50.86,1014.33,2036.32,999.41,1196.62,1359.52,599.91,601.43,28.16,0000 0000 0000 0000 000000
2017-01-03 07:05:13,0.43,13.63,0.00,19.67,23.72,27.50,14.71,50.90,1014.21,2036.24,997.69,1195.31,1357.94,599.75,601.19,28.21,0000 0000 0000 0000 000000
2017-01-03 07:10:14,0.44,13.65,0.00,19.67,23.74,27.51,14.76,50.92,1014.22,2036.16,995.91,1193.84,1356.41,600.27,601.59,28.26,0000 0000 0000 0000 000000
2017-01-03 07:15:15,0.44,13.67,0.00,19.67,23.75,27.51,14.66,50.97,1014.21,2036.13,994.24,1192.49,1354.79,600.01,601.44,28.31,0000 0000 0000 0000 000000
2017-01-03 07:20:16,0.45,13.70,0.00,19.68,23.75,27.55,14.71,51.01,1014.22,2036.16,992.57,1191.16,1353.28,599.86,601.23,28.36,0000 0000 0000 0000 000000
2017-01-03 07:25:18,0.48,13.72,0.00,19.69,23.76,27.52,14.81,51.13,1014.28,2036.04,990.84,1189.71,1351.67,600.05,601.52,28.41,0000 0000 0000 0000 000000
2017-01-03 07:30:19,0.45,13.74,0.00,19.70,23.77,27.54,14.74,51.13,1014.28,2036.02,989.00,1188.37,1350.09,600.61,601.93,28.46,0000 0000 0000 0000 000000
2017-01-03 07:35:20,0.44,13.77,0.00,19.70,23.77,27.55,14.74,51.21,1014.48,2036.01,987.27,1186.96,1348.53,599.70,601.26,28.51,0000 0000 0000 0000 000000
2017-01-03 07:40:21,0.49,13.79,0.00,19.69,23.77,27.54,14.77,51.28,1014.49,2036.02,985.56,1185.59,1346.95,600.00,601.61,28.56,0000 0000 0000 0000 000000
2017-01-03 07:45:23,0.42,13.81,0.00,19.71,23.79,27.56,14.72,51.24,1014.58,2036.01,983.92,1184.31,1345.43,599.84,601.37,28.61,0000 0000 0000 0000 000000
2017-01-03 07:50:24,0.45,13.83,0.00,19.72,23.80,27.56,14.76,51.23,1014.65,2036.00,982.36,1182.88,1343.83,600.09,601.68,28.66,0000 0000 0000 0000 000000
2017-01-03 07:55:25,0.46,13.86,0.00,19.71,23.81,27.55,14.73,51.27,1014.65,2036.00,980.71,1181.56,1342.49,599.79,601.43,28.71,0000 0000 0000 0000 000000
2017-01-03 08:00:27,0.38,13.88,0.00,19.72,23.82,27.58,14.83,51.25,1014.58,2036.00,979.09,1180.26,1340.96,600.34,601.80,28.76,0000 0000 0000 0000 000000
2017-01-03 08:05:28,0.46,13.90,0.00,19.72,23.82,27.57,14.77,51.24,1014.54,2036.00,977.47,1178.91,1339.47,600.01,601.45,28.81,0000 0000 0000 0000 000000
2017-01-03 08:10:29,0.46,13.92,0.00,19.72,23.84,27.56,14.78,51.39,1014.65,2036.00,975.85,1177.62,1337.98,599.92,601.51,28.86,0000 0000 0000 0000 000000
2017-01-03 08:15:30,0.41,13.94,0.00,19.72,23.85,27.58,14.72,51.22,1014.64,2036.00,974.37,1176.37,1336.49,599.95,601.44,28.91,0000 0000 0000 0000 000000
2017-01-03 08:20:32,0.46,13.97,0.00,19.72,23.85,27.58,14.71,51.26,1014.66,2035.99,972.73,1175.00,1334.88,599.72,601.38,28.96,0000 0000 0000 0000 000000
2017-01-03 08:25:33,0.45,13.99,0.00,19.73,23.87,27.61,14.75,51.26,1014.66,2035.99,971.04,1173.65,1333.37,599.86,601.42,29.01,0000 0000 0000 0000 000000
2017-01-03 08:30:34,0.45,14.01,0.00,19.74,23.87,27.60,14.77,51.28,1014.66,2035.99,969.55,1172.35,1331.81,599.74,601.18,29.06,0000 0000 0000 0000 000000
2017-01-03 08:35:35,0.42,14.04,0.00,19.75,23.88,27.62,14.78,51.23,1014.66,2035.99,967.90,1171.00,1330.37,600.08,601.57,29.11,0000 0000 0000 0000 000000
2017-01-03 08:40:36,0.49,14.06,0.00,19.74,23.90,27.60,14.79,51.39,1014.66,2035.98,966.25,1169.65,1328.83,600.25,601.69,29.16,0000 0000 0000 0000 000000
2017-01-03 08:45:38,0.44,14.08,0.00,19.74,23.90,27.63,14.77,51.44,1014.66,2035.97,964.57,1168.37,1327.36,600.01,601.43,29.21,0000 0000 0000 0000 000000
2017-01-03 08:50:39,0.44,14.11,0.00,19.76,23.90,27.62,14.75,51.37,1014.66,2035.97,962.95,1167.02,1325.80,599.91,601.48,29.26,0000 0000 0000 0000 000000
2017-01-03 08:55:41,0.44,14.13,0.00,19.78,23.92,27.62,14.75,51.28,1014.67,2035.95,961.39,1165.75,1324.40,600.23,601.62,29.31,0000 0000 0000 0000 000000
2017-01-03 09:00:42,0.44,14.15,0.00,19.79,23.92,27.63,14.81,51.31,1014.67,2035.95,959.85,1164.50,1322.86,600.22,601.67,29.36,0000 0000 0000 0000 000000
2017-01-03 09:05:44,0.40,14.17,0.00,19.78,23.92,27.67,14.69,51.27,1014.67,2035.93,958.41,1163.19,1321.43,600.18,601.57,29.41,0000 0000 0000 0000 000000
2017-01-03 09:10:45,0.51,14.19,0.00,19.77,23.93,27.62,14.79,51.46,1014.70,2035.91,956.69,1161.77,1319.81,600.21,601.63,29.46,0000 0000 0000 0000 000000
2017-01-03 09:15:46,0.54,14.22,0.00,19.79,23.94,27.65,14.79,51.52,1014.82,2035.85,954.62,1160.23,1318.06,600.03,601.53,29.51,0000 0000 0000 0000 000000
2017-01-03 09:20:47,0.56,14.25,0.00,19.80,23.95,27.66,14.71,51.45,1014.82,2035.77,952.61,1158.62,1316.26,599.76,601.27,29.56,0000 0000 0000 0000 000000
2017-01-03 09:25:49,0.45,14.27,0.00,19.81,23.95,27.66,14.75,51.33,1015.02,2035.49,950.87,1157.07,1314.44,599.71,601.35,29.61,0000 0000 0000 0000 000000
2017-01-03 09:30:50,0.50,14.30,0.00,19.80,23.97,27.68,14.75,51.33,1015.10,2035.20,949.02,1155.62,1312.70,599.92,601.49,29.66,0000 0000 0000 0000 000000
2017-01-03 09:35:51,0.48,14.32,0.00,19.81,23.97,27.68,14.83,51.27,1015.09,2035.09,947.20,1154.11,1310.97,600.23,601.77,29.71,0000 0000 0000 0000 000000
2017-01-03 09:40:52,0.47,14.35,0.00,19.81,23.97,27.67,14.68,51.20,1015.10,2035.02,945.62,1152.74,1309.37,599.88,601.50,29.76,0000 0000 0000 0000 000000
2017-01-03 09:45:53,0.53,14.37,0.00,19.82,23.99,27.69,14.72,51.24,1015.11,2035.01,943.75,1151.30,1307.68,599.83,601.47,29.81,0000 0000 0000 0000 000000
2017-01-03 09:50:55,0.53,14.40,0.00,19.82,24.00,27.68,14.79,51.23,1014.96,2035.02,941.86,1149.84,1305.95,599.88,601.54,29.86,0000 0000 0000 0000 000000
2017-01-03 09:55:56,0.60,14.43,0.00,19.83,24.00,27.72,14.74,51.33,1014.75,2035.02,939.74,1148.23,1304.09,600.02,601.41,29.91,0000 0000 0000 0000 000000
2017-01-03 10:00:57,0.71,14.46,0.80,19.84,24.00,27.71,14.71,51.26,1014.69,2035.00,937.28,1146.36,1302.05,599.67,600.93,29.96,0000 0000 0000 0000 000000
2017-01-03 10:05:59,0.73,14.50,1.00,19.85,24.00,27.72,14.73,51.37,1014.69,2035.00,934.55,1144.40,1299.82,600.20,601.41,30.01,0000 0000 0000 0000 000000
2017-01-03 10:11:00,0.66,14.53,1.00,19.86,24.02,27.72,14.74,51.45,1014.70,2035.01,932.21,1142.57,1297.78,599.79,601.14,30.06,0000 0000 0000 0000 000000
2017-01-03 10:16:01,0.65,14.56,1.00,19.85,24.02,27.72,14.76,51.48,1014.80,2035.00,929.94,1140.78,1295.76,599.64,601.02,30.11,0000 0000 0000 0000 000000
2017-01-03 10:21:02,0.65,14.60,1.00,19.86,24.02,27.71,14.75,51.36,1014.85,2035.00,927.65,1138.93,1293.69,599.86,601.27,30.16,0000 0000 0000 0000 000000
2017-01-03 10:26:04,0.62,14.63,1.00,19.88,24.03,27.74,14.75,51.38,1014.79,2035.00,925.47,1137.27,1291.73,600.00,601.39,30.22,0000 0000 0000 0000 000000
2017-01-03 10:31:05,0.61,14.66,1.00,19.88,24.05,27.75,14.72,51.31,1014.92,2035.00,923.32,1135.58,1289.74,599.85,601.13,30.27,0000 0000 0000 0000 000000
2017-01-03 10:36:06,0.57,14.69,1.00,19.87,24.05,27.74,14.78,51.32,1015.11,2035.00,921.33,1134.03,1288.03,600.35,601.84,30.32,0000 0000 0000 0000 000000
2017-01-03 10:41:08,0.53,14.72,1.00,19.86,24.06,27.77,14.74,51.44,1015.05,2035.00,919.38,1132.54,1286.37,599.75,601.25,30.37,0000 0000 0000 0000 000000
2017-01-03 10:46:09,0.53,14.75,1.00,19.89,24.07,27.74,14.73,51.47,1015.00,2034.99,917.65,1131.08,1284.67,599.62,601.13,30.42,0000 0000 0000 0000 000000
2017-01-03 10:51:11,0.42,14.77,1.00,19.90,24.07,27.75,14.68,51.38,1015.11,2034.99,916.13,1129.77,1283.15,599.51,600.96,30.47,0000 0000 0000 0000 000000
2017-01-03 10:56:12,0.51,14.79,1.00,19.89,24.09,27.78,14.71,51.41,1015.11,2034.98,914.59,1128.52,1281.71,599.97,601.45,30.52,0000 0000 0000 0000 000000
2017-01-03 11:01:13,0.45,14.82,1.00,19.89,24.10,27.80,14.78,51.47,1014.91,2034.96,912.89,1127.28,1280.28,600.10,601.45,30.57,0000 0000 0000 0000 000000
2017-01-03 11:06:14,0.48,14.84,1.00,19.92,24.10,27.81,14.77,51.50,1015.05,2034.95,911.24,1125.87,1278.77,599.90,601.43,30.62,0000 0000 0000 0000 000000
2017-01-03 11:11:16,0.48,14.87,1.00,19.92,24.10,27.81,14.76,51.48,1015.09,2034.92,909.74,1124.56,1277.30,599.74,601.12,30.67,0000 0000 0000 0000 000000
2017-01-03 11:16:17,0.42,14.89,1.00,19.93,24.12,27.80,14.78,51.53,1015.10,2034.89,908.26,1123.37,1275.84,600.08,601.47,30.72,0000 0000 0000 0000 000000
2017-01-03 11:21:18,0.45,14.91,1.00,19.93,24.12,27.81,14.76,51.48,1015.05,2034.81,906.65,1122.08,1274.44,599.83,601.08,30.77,0000 0000 0000 0000 000000
2017-01-03 11:26:20,0.47,14.94,1.00,19.93,24.12,27.83,14.80,51.49,1015.00,2034.69,905.03,1120.76,1272.89,599.78,601.10,30.82,0000 0000 0000 0000 000000
2017-01-03 11:31:21,0.46,14.96,0.13,19.93,24.13,27.81,14.74,51.43,1015.04,2034.56,903.56,1119.52,1271.47,599.77,601.16,30.87,0000 0000 0000 0000 000000
2017-01-03 11:36:22,0.43,14.98,0.00,19.92,24.14,27.84,14.76,51.45,1015.00,2034.28,901.89,1118.11,1269.88,600.09,601.37,30.92,0000 0000 0000 0000 000000
2017-01-03 11:41:24,0.51,15.01,0.00,19.94,24.15,27.81,14.82,51.57,1014.97,2034.28,900.25,1116.73,1268.39,600.31,601.65,30.97,0000 0000 0000 0000 000000
2017-01-03 11:46:25,0.53,15.03,0.00,19.96,24.15,27.84,14.74,51.51,1014.94,2034.23,898.45,1115.37,1266.78,600.00,601.30,31.02,0000 0000 0000 0000 000000
2017-01-03 11:51:27,0.51,15.06,0.00,19.96,24.15,27.85,14.68,51.51,1014.75,2034.16,896.70,1113.92,1265.23,599.73,600.77,31.07,0000 0000 0000 0000 000000
2017-01-03 11:56:28,0.45,15.08,0.00,19.95,24.15,27.77,14.65,51.51,1014.72,2034.14,895.29,1112.60,1263.67,599.49,600.65,31.12,0000 0000 0000 0000 000000
2017-01-03 12:01:30,0.49,15.11,0.00,19.96,24.15,27.81,14.77,51.48,1014.71,2034.09,893.67,1111.32,1262.12,600.08,601.25,31.17,0000 0000 0000 0000 000000
2017-01-03 12:06:31,0.46,15.13,0.00,19.97,24.15,27.82,14.78,51.62,1014.70,2034.05,892.10,1109.98,1260.66,599.82,600.86,31.22,0000 0000 0000 0000 000000
2017-01-03 12:11:33,0.47,15.15,0.00,19.97,24.17,27.78,14.65,51.49,1014.71,2034.04,890.64,1108.76,1259.36,599.74,600.87,31.27,0000 0000 0000 0000 000000
2017-01-03 12:16:34,0.41,15.17,0.00,19.97,24.17,27.83,14.77,51.53,1014.69,2034.03,889.24,1107.62,1257.95,600.11,601.20,31.32,0000 0000 0000 0000 000000
2017-01-03 12:21:35,0.47,15.20,0.00,19.96,24.17,27.83,14.81,51.59,1014.68,2034.04,887.78,1106.44,1256.57,600.29,601.46,31.37,0000 0000 0000 0000 000000
2017-01-03 12:26:36,0.42,15.22,0.00,19.96,24.17,27.82,14.69,51.52,1014.67,2034.03,886.39,1105.28,1255.27,599.73,600.78,31.42,0000 0000 0000 0000 000000
2017-01-03 12:31:37,0.42,15.24,0.00,19.95,24.18,27.85,14.71,51.54,1014.67,2034.03,884.92,1104.06,1253.83,600.00,601.06,31.47,0000 0000 0000 0000 000000
2017-01-03 12:36:39,0.47,15.27,0.00,19.96,24.20,27.70,14.77,51.56,1014.67,2034.02,883.56,1102.84,1252.49,599.72,600.67,31.52,0000 0000 0000 0000 000000
2017-01-03 12:41:40,0.44,15.29,0.00,19.95,24.20,27.83,14.74,51.57,1014.68,2034.01,882.01,1101.64,1251.13,600.18,601.26,31.57,0000 0000 0000 0000 000000
2017-01-03 12:46:41,0.50,15.31,0.00,19.96,24.20,27.86,14.74,51.58,1014.68,2034.01,880.54,1100.45,1249.68,599.63,600.82,31.62,0000 0000 0000 0000 000000
2017-01-03 12:51:43,0.42,15.34,0.00,19.97,24.21,27.86,14.75,51.62,1014.67,2034.00,879.04,1099.23,1248.32,600.42,601.48,31.67,0000 0000 0000 0000 000000